QPF
0.00 0.00 0.00 0.00 0.00 0.00 0.00 0.00 0.00 0.00 0.00 0.00 0.00 0.00 0.00 0.00 0.00 0.00 0.00 0.00 0.00 0.00 0.00 0.00 0.00 0.00 0.00 0.00 0.00 0.00 0.00 0.00 0.00 0.00 0.00 0.00 0.00 0.00 0.00 0.00 0.00 0.00
0.00 0.00 0.00 0.00 0.00 0.00 0.00 0.00 0.00 0.00 0.00 0.00 0.00 0.00 0.00 0.00 0.00 0.00 0.00 0.00 0.00 0.00 0.00 0.00 0.00 0.00 0.00 0.00 0.00 0.00 0.00 0.00 0.00 0.00 0.00 0.00 0.00 0.00 0.00 0.00 0.00 0.00
0.00 0.00 0.00 0.00 0.00 0.00 0.00 0.00 0.00 0.00 0.00 0.00 0.00 0.00 0.00 0.00 0.00 0.00 0.00 0.00 0.00 0.00 0.00 0.00 0.00 0.00 0.00 0.00 0.00 0.00 0.00 0.00 0.00 0.00 0.00 0.00 0.00 0.00 0.00 0.00 0.00 0.00
0.00 0.00 0.00 0.00 0.00 0.00 0.00 0.00 0.00 0.00 0.00 0.00 0.00 0.00 0.00 0.00 0.00 0.00 0.00 0.00 0.00 0.00 0.00 0.00 0.00 0.00 0.00 0.00 0.00 0.00 0.00 0.00 0.00 0.00 0.00 0.00 0.00 0.00 0.00 0.00 0.00 0.00
0.00 0.00 0.00 0.00 0.00 0.00 0.00 0.00 0.00 0.00 0.00 0.00 0.00 0.00 0.00 0.00 0.00 0.00 0.00 0.00 0.00 0.00 0.00 0.00 0.00 0.00 0.00 0.00 0.00 0.00 0.00 0.00 0.00 0.00 0.00 0.00 0.00 0.00 0.00 0.00 0.00 0.00
0.00 0.00 0.00 0.00 0.00 0.00 0.00 0.00 0.00 0.00 0.00 0.00 0.00 0.00 0.00 0.00 0.00 0.00 0.00 0.00 0.00 0.00 0.00 0.00 0.00 0.00 0.00 0.00 0.00 0.00 0.00 0.00 0.00 0.00 0.00 0.00 0.00 0.00 0.00 0.00 0.00 0.00
0.00 0.00 0.00 0.00 0.00 0.00 0.00 0.00 0.00 0.00 0.00 0.00 0.00 0.00 0.00 0.00 0.00 0.00 0.00 0.00 0.00 0.00 0.00 0.00 0.00 0.00 0.00 0.00 0.00 0.00 0.00 0.00 0.00 0.00 0.00 0.00 0.00 0.00 0.00 0.00 0.00 0.00
0.00 0.00 0.00 0.00 0.00 0.00 0.00 0.00 0.00 0.00 0.00 0.00 0.00 0.00 0.00 0.00 0.00 0.00 0.00 0.00 0.00 0.00 0.00 0.00 0.00 0.00 0.00 0.00 0.00 0.00 0.00 0.00 0.00 0.00 0.00 0.00 0.00 0.00 0.00 0.00 0.00 0.00
0.00 0.00 0.00 0.00 0.00 0.00 0.00 0.00 0.00 0.00 0.00 0.00 0.00 0.00 0.00 0.00 0.00 0.00 0.00 0.00 0.00 0.00 0.00 0.00 0.00 0.00 0.00 0.00 0.00 0.00 0.00 0.00 0.00 0.00 0.00 0.00 0.00 0.00 0.00 0.00 0.00 0.00
0.00 0.00 0.00 0.00 0.00 0.00 0.00 0.00 0.00 0.00 0.00 0.00 0.00 0.00 0.00 0.00 0.00 0.00 0.00 0.00 0.00 0.00 0.00 0.00 0.00 0.00 0.00 0.00 0.00 0.00 0.00 0.00 0.00 0.00 0.00 0.00 0.00 0.00 0.00 0.00 0.00 0.00
0.00 0.00 0.00 0.00 0.00 0.00 0.00 0.00 0.00 0.00 0.00 0.00 0.00 0.00 0.00 0.00 0.00 0.00 0.00 0.00 0.00 0.00 0.00 0.00 0.00 0.00 0.00 0.00 0.00 0.00 0.00 0.00 0.00 0.00 0.00 0.00 0.00 0.00 0.00 0.00 0.00 0.00
0.00 0.00 0.00 0.00 0.00 0.00 0.00 0.00 0.00 0.00 0.00 0.00 0.00 0.00 0.00 0.00 0.00 0.00 0.00 0.00 0.00 0.00 0.00 0.00 0.00 0.00 0.00 0.00 0.00 0.00 0.00 0.00 0.00 0.00 0.00 0.00 0.00 0.00 0.00 0.00 0.00 0.00
0.00 0.00 0.00 0.00 0.00 0.00 0.00 0.00 0.00 0.00 0.00 0.00 0.00 0.00 0.00 0.00 0.00 0.00 0.00 0.00 0.00 0.00 0.00 0.00 0.00 0.00 0.00 0.00 0.00 0.00 0.00 0.00 0.00 0.00 0.00 0.00 0.00 0.00 0.00 0.00 0.00 0.00
0.00 0.00 0.00 0.00 0.00 0.00 0.00 0.00 0.00 0.00 0.00 0.00 0.00 0.00 0.00 0.00 0.00 0.00 0.00 0.00 0.00 0.00 0.00 0.00 0.00 0.00 0.00 0.00 0.00 0.00 0.00 0.00 0.00 0.00 0.00 0.00 0.00 0.00 0.00 0.00 0.00 0.00
0.00 0.00 0.00 0.00 0.00 0.00 0.00 0.00 0.00 0.00 0.00 0.00 0.00 0.00 0.00 0.00 0.00 0.00 0.00 0.00 0.00 0.00 0.00 0.00 0.00 0.00 0.00 0.00 0.00 0.00 0.00 0.00 0.00 0.00 0.00 0.00 0.00 0.00 0.00 0.00 0.00 0.00
0.00 0.00 0.00 0.00 0.00 0.00 0.00 0.00 0.00 0.00 0.00 0.00 0.00 0.00 0.00 0.00 0.00 0.00 0.00 0.00 0.00 0.00 0.00 0.00 0.00 0.00 0.00 0.00 0.00 0.00 0.00 0.00 0.00 0.00 0.01 0.01 0.01 0.01 0.01 0.00 0.00 0.00
0.00 0.00 0.00 0.00 0.00 0.00 0.00 0.00 0.00 0.00 0.00 0.00 0.00 0.00 0.00 0.00 0.00 0.00 0.00 0.00 0.00 0.00 0.00 0.00 0.00 0.00 0.00 0.00 0.00 0.00 0.01 0.02 0.02 0.02 0.02 0.02 0.02 0.02 0.02 0.01 0.01 0.01
0.00 0.00 0.00 0.00 0.00 0.00 0.00 0.00 0.00 0.00 0.00 0.00 0.00 0.00 0.00 0.00 0.00 0.00 0.00 0.00 0.00 0.00 0.00 0.00 0.00 0.00 0.00 0.00 0.00 0.01 0.01 0.01 0.02 0.02 0.02 0.02 0.02 0.01 0.01 0.01 0.01 0.01
0.00 0.00 0.00 0.00 0.00 0.00 0.00 0.00 0.00 0.00 0.00 0.00 0.00 0.00 0.00 0.00 0.00 0.00 0.00 0.00 0.00 0.00 0.00 0.00 0.00 0.00 0.00 0.00 0.00 0.01 0.01 0.01 0.01 0.02 0.02 0.02 0.02 0.02 0.01 0.01 0.01 0.01
0.00 0.00 0.00 0.00 0.00 0.00 0.00 0.00 0.00 0.00 0.00 0.00 0.00 0.00 0.00 0.00 0.00 0.00 0.00 0.00 0.00 0.00 0.00 0.00 0.00 0.00 0.00 0.00 0.00 0.01 0.01 0.02 0.02 0.02 0.02 0.01 0.01 0.01 0.01 0.01 0.00 0.00
0.00 0.00 0.00 0.00 0.00 0.00 0.00 0.00 0.00 0.00 0.00 0.00 0.00 0.00 0.00 0.00 0.00 0.00 0.00 0.00 0.00 0.00 0.00 0.00 0.00 0.00 0.00 0.00 0.01 0.01 0.01 0.02 0.02 0.01 0.01 0.01 0.01 0.00 0.00 0.00 0.00 0.00
0.00 0.00 0.00 0.00 0.00 0.00 0.00 0.00 0.00 0.00 0.00 0.00 0.00 0.00 0.00 0.00 0.00 0.00 0.00 0.00 0.00 0.00 0.00 0.00 0.00 0.00 0.00 0.00 0.00 0.01 0.01 0.01 0.01 0.01 0.01 0.01 0.00 0.00 0.00 0.00 0.00 0.00
0.00 0.00 0.00 0.00 0.00 0.00 0.00 0.00 0.00 0.00 0.00 0.00 0.00 0.00 0.00 0.00 0.00 0.00 0.00 0.00 0.00 0.00 0.00 0.00 0.00 0.00 0.00 0.00 0.00 0.00 0.01 0.01 0.01 0.01 0.01 0.01 0.00 0.00 0.00 0.00 0.00 0.00
0.00 0.00 0.00 0.00 0.00 0.00 0.00 0.00 0.00 0.00 0.00 0.00 0.00 0.00 0.00 0.00 0.00 0.00 0.00 0.00 0.00 0.00 0.00 0.00 0.00 0.00 0.00 0.00 0.00 0.00 0.01 0.01 0.01 0.01 0.01 0.01 0.00 0.00 0.00 0.00 0.00 0.00
0.00 0.00 0.00 0.00 0.00 0.00 0.00 0.00 0.00 0.00 0.00 0.00 0.00 0.00 0.00 0.00 0.00 0.00 0.00 0.00 0.00 0.00 0.00 0.00 0.00 0.00 0.00 0.00 0.00 0.00 0.00 0.01 0.01 0.01 0.01 0.01 0.00 0.00 0.00 0.00 0.00 0.00
0.00 0.00 0.00 0.00 0.00 0.00 0.00 0.00 0.00 0.00 0.00 0.00 0.00 0.00 0.00 0.00 0.00 0.00 0.00 0.00 0.00 0.00 0.00 0.00 0.00 0.00 0.00 0.00 0.00 0.00 0.00 0.00 0.00 0.01 0.01 0.00 0.00 0.00 0.00 0.00 0.00 0.00
MSLP
1041.01 1041.05 1041.17 1041.21 1041.41 1041.69 1041.89 1042.05 1042.09 1042.21 1042.17 1042.33 1042.53 1042.69 1042.77 1042.81 1042.93 1043.05 1043.05 1043.05 1043.01 1043.01 1042.97 1042.97 1042.93 1043.01 1043.01 1043.05 1043.01 1042.97 1042.93 1042.81 1042.45 1042.05 1041.97 1041.97 1041.93 1041.81 1041.81 1041.73 1041.57 1041.49
1041.13 1041.33 1041.33 1041.37 1041.49 1041.89 1042.05 1042.09 1042.25 1042.29 1042.41 1042.49 1042.69 1042.77 1042.77 1042.85 1043.01 1042.97 1043.05 1043.01 1042.97 1042.97 1042.89 1042.85 1042.89 1042.85 1042.93 1042.97 1042.97 1043.01 1042.93 1042.73 1042.45 1042.13 1042.05 1041.89 1041.81 1041.73 1041.65 1041.45 1041.37 1041.33
1041.25 1041.37 1041.57 1041.69 1041.81 1042.01 1042.13 1042.17 1042.29 1042.41 1042.53 1042.61 1042.69 1042.73 1042.93 1042.93 1043.01 1042.97 1042.97 1042.97 1042.97 1042.89 1042.85 1042.77 1042.77 1042.77 1042.81 1042.85 1042.85 1042.89 1042.85 1042.65 1042.41 1042.21 1042.01 1041.85 1041.77 1041.69 1041.57 1041.45 1041.37 1041.25
1041.37 1041.53 1041.65 1041.85 1041.85 1042.13 1042.13 1042.33 1042.45 1042.53 1042.57 1042.77 1042.81 1042.89 1042.93 1042.97 1042.93 1042.97 1042.97 1042.93 1042.89 1042.85 1042.81 1042.77 1042.73 1042.73 1042.73 1042.73 1042.77 1042.73 1042.65 1042.49 1042.29 1042.09 1041.93 1041.77 1041.69 1041.65 1041.65 1041.53 1041.41 1041.29
1041.45 1041.57 1041.77 1041.89 1042.01 1042.13 1042.25 1042.33 1042.53 1042.61 1042.77 1042.81 1042.89 1042.93 1042.93 1042.93 1043.05 1043.01 1042.97 1042.97 1042.89 1042.89 1042.81 1042.77 1042.77 1042.73 1042.73 1042.69 1042.65 1042.61 1042.53 1042.37 1042.13 1041.85 1041.77 1041.85 1041.85 1041.81 1041.77 1041.57 1041.41 1041.25
1041.41 1041.69 1041.85 1042.01 1042.17 1042.33 1042.49 1042.61 1042.65 1042.73 1042.85 1042.93 1042.89 1042.93 1043.01 1043.09 1043.09 1043.05 1043.01 1043.01 1042.97 1042.93 1042.85 1042.81 1042.81 1042.77 1042.73 1042.73 1042.65 1042.57 1042.45 1042.29 1042.05 1041.93 1041.93 1041.93 1041.97 1041.85 1041.69 1041.57 1041.41 1041.33
1041.49 1041.77 1042.05 1042.09 1042.37 1042.45 1042.69 1042.69 1042.73 1042.77 1042.93 1042.97 1042.97 1043.13 1043.13 1043.17 1043.17 1043.13 1043.09 1043.05 1043.01 1042.97 1042.93 1042.89 1042.81 1042.77 1042.73 1042.69 1042.61 1042.49 1042.33 1042.17 1042.09 1042.01 1041.97 1041.93 1041.81 1041.65 1041.53 1041.45 1041.41 1041.21
1041.69 1041.93 1042.17 1042.33 1042.57 1042.65 1042.73 1042.73 1042.73 1042.85 1042.89 1042.97 1043.09 1043.17 1043.13 1043.17 1043.17 1043.17 1043.09 1043.05 1043.01 1042.89 1042.85 1042.81 1042.77 1042.65 1042.57 1042.49 1042.45 1042.29 1042.13 1042.01 1041.93 1041.85 1041.77 1041.65 1041.57 1041.41 1041.33 1041.29 1041.13 1040.97
1041.77 1041.97 1042.09 1042.33 1042.49 1042.61 1042.65 1042.65 1042.65 1042.77 1042.85 1042.97 1043.05 1043.13 1043.13 1043.13 1043.17 1043.09 1043.05 1043.01 1042.97 1042.89 1042.81 1042.73 1042.61 1042.57 1042.45 1042.37 1042.21 1042.05 1041.89 1041.73 1041.61 1041.53 1041.41 1041.29 1041.21 1041.01 1040.93 1040.93 1040.81 1040.61
1041.69 1041.89 1042.01 1042.17 1042.37 1042.45 1042.49 1042.49 1042.53 1042.65 1042.77 1042.85 1042.93 1042.97 1043.01 1043.05 1043.05 1043.05 1043.05 1043.01 1042.93 1042.81 1042.65 1042.53 1042.45 1042.33 1042.21 1042.05 1041.89 1041.73 1041.61 1041.37 1041.25 1041.13 1040.97 1040.85 1040.73 1040.65 1040.61 1040.57 1040.45 1040.29
1041.65 1041.81 1042.05 1042.17 1042.29 1042.37 1042.41 1042.45 1042.53 1042.61 1042.73 1042.77 1042.81 1042.85 1042.89 1042.93 1042.97 1042.93 1042.89 1042.81 1042.73 1042.57 1042.41 1042.25 1042.09 1042.01 1041.89 1041.73 1041.57 1041.41 1041.29 1041.17 1041.01 1040.85 1040.65 1040.49 1040.37 1040.29 1040.21 1040.13 1040.01 1039.81
1041.73 1041.85 1042.01 1042.09 1042.17 1042.21 1042.29 1042.37 1042.45 1042.53 1042.57 1042.65 1042.69 1042.77 1042.77 1042.81 1042.81 1042.77 1042.69 1042.57 1042.41 1042.25 1042.09 1041.93 1041.77 1041.69 1041.57 1041.41 1041.29 1041.17 1041.05 1040.85 1040.65 1040.49 1040.29 1040.13 1040.01 1039.89 1039.81 1039.73 1039.57 1039.37
1041.65 1041.77 1041.89 1041.97 1041.97 1042.01 1042.13 1042.21 1042.29 1042.37 1042.49 1042.57 1042.61 1042.65 1042.61 1042.61 1042.57 1042.49 1042.37 1042.29 1042.09 1041.97 1041.77 1041.61 1041.45 1041.29 1041.17 1041.05 1040.93 1040.81 1040.69 1040.57 1040.37 1040.13 1039.93 1039.85 1039.69 1039.53 1039.37 1039.25 1039.09 1038.93
1041.57 1041.65 1041.69 1041.69 1041.77 1041.89 1042.05 1042.13 1042.25 1042.33 1042.37 1042.41 1042.41 1042.41 1042.37 1042.29 1042.25 1042.13 1042.01 1041.93 1041.73 1041.57 1041.33 1041.21 1041.05 1040.89 1040.81 1040.69 1040.53 1040.41 1040.33 1040.21 1040.01 1039.73 1039.57 1039.45 1039.29 1039.09 1038.93 1038.73 1038.57 1038.37
1041.45 1041.45 1041.45 1041.61 1041.77 1041.89 1042.01 1042.09 1042.13 1042.17 1042.21 1042.21 1042.17 1042.09 1042.01 1041.93 1041.85 1041.77 1041.69 1041.53 1041.33 1041.17 1040.97 1040.85 1040.73 1040.57 1040.45 1040.33 1040.21 1040.05 1039.97 1039.85 1039.65 1039.37 1039.17 1038.97 1038.73 1038.53 1038.29 1038.05 1037.81 1037.57
1041.25 1041.25 1041.37 1041.57 1041.73 1041.85 1041.93 1041.97 1042.01 1042.01 1041.97 1041.93 1041.85 1041.73 1041.69 1041.61 1041.57 1041.45 1041.33 1041.17 1041.01 1040.81 1040.65 1040.49 1040.37 1040.21 1040.01 1039.81 1039.57 1039.49 1039.45 1039.33 1039.09 1038.77 1038.53 1038.25 1037.89 1037.57 1037.29 1037.05 1036.77 1036.61
1041.05 1041.17 1041.33 1041.49 1041.57 1041.69 1041.69 1041.73 1041.69 1041.69 1041.65 1041.57 1041.53 1041.45 1041.37 1041.29 1041.21 1041.09 1040.93 1040.81 1040.65 1040.45 1040.25 1040.05 1039.89 1039.77 1039.61 1039.17 1038.57 1038.17 1037.97 1037.89 1037.97 1037.69 1037.41 1037.09 1036.77 1036.61 1036.41 1036.21 1035.85 1035.61
1040.93 1041.05 1041.21 1041.29 1041.33 1041.37 1041.37 1041.41 1041.41 1041.41 1041.37 1041.29 1041.21 1041.13 1041.01 1040.93 1040.81 1040.61 1040.49 1040.37 1040.25 1040.09 1039.85 1039.57 1039.41 1039.25 1038.97 1038.37 1037.89 1037.45 1037.17 1036.93 1036.65 1036.41 1036.25 1036.09 1035.85 1035.57 1035.29 1035.01 1034.73 1034.49
1040.69 1040.85 1040.93 1041.01 1041.01 1041.05 1041.09 1041.13 1041.13 1041.09 1041.05 1041.01 1040.89 1040.73 1040.65 1040.53 1040.33 1040.21 1040.05 1039.97 1039.93 1039.73 1039.41 1039.05 1038.89 1038.73 1038.49 1037.89 1037.41 1036.97 1036.57 1036.37 1036.05 1035.81 1035.73 1035.49 1035.29 1035.05 1034.77 1034.49 1034.25 1034.09
1040.41 1040.53 1040.65 1040.65 1040.73 1040.73 1040.77 1040.77 1040.77 1040.69 1040.65 1040.57 1040.45 1040.33 1040.21 1040.05 1039.93 1039.81 1039.61 1039.53 1039.41 1039.29 1038.97 1038.57 1038.33 1038.25 1038.05 1037.45 1036.93 1036.49 1036.09 1035.77 1035.45 1035.25 1035.09 1035.01 1034.93 1034.81 1034.61 1034.41 1034.33 1034.21
1040.05 1040.17 1040.29 1040.33 1040.33 1040.37 1040.37 1040.37 1040.33 1040.29 1040.25 1040.17 1040.09 1039.97 1039.85 1039.69 1039.53 1039.37 1039.13 1039.01 1038.85 1038.77 1038.57 1038.01 1037.65 1037.77 1037.49 1036.89 1036.37 1035.97 1035.57 1035.29 1035.09 1035.01 1034.97 1034.93 1034.89 1034.69 1034.49 1034.33 1034.25 1034.13
1039.65 1039.77 1039.85 1039.93 1039.97 1039.97 1040.01 1040.01 1039.97 1039.93 1039.93 1039.85 1039.77 1039.57 1039.41 1039.25 1039.05 1038.93 1038.69 1038.53 1038.33 1038.29 1038.13 1037.57 1037.09 1037.29 1037.05 1036.49 1035.97 1035.61 1035.29 1035.13 1035.01 1034.93 1034.89 1034.81 1034.65 1034.45 1034.25 1034.13 1034.01 1033.85
1039.17 1039.37 1039.45 1039.53 1039.57 1039.65 1039.69 1039.69 1039.69 1039.65 1039.57 1039.49 1039.41 1039.17 1039.01 1038.81 1038.65 1038.53 1038.33 1038.13 1037.93 1037.81 1037.69 1037.25 1036.73 1036.73 1036.77 1036.29 1035.73 1035.29 1035.01 1034.93 1034.85 1034.73 1034.61 1034.45 1034.21 1033.97 1033.81 1033.69 1033.57 1033.41
1038.69 1038.85 1039.05 1039.13 1039.25 1039.33 1039.37 1039.37 1039.33 1039.29 1039.25 1039.17 1039.09 1038.89 1038.69 1038.49 1038.41 1038.21 1037.97 1037.81 1037.65 1037.37 1037.29 1037.05 1036.37 1036.17 1036.29 1035.97 1035.41 1034.93 1034.73 1034.65 1034.53 1034.41 1034.13 1034.01 1033.69 1033.53 1033.41 1033.25 1033.09 1032.93
1038.33 1038.53 1038.73 1038.89 1039.01 1039.05 1039.13 1039.13 1039.13 1039.13 1039.01 1038.93 1038.81 1038.69 1038.45 1038.29 1038.17 1037.97 1037.57 1037.29 1037.13 1036.97 1036.77 1036.65 1036.13 1035.69 1035.69 1035.65 1035.21 1034.61 1034.33 1034.25 1034.13 1033.93 1033.61 1033.41 1033.37 1033.05 1033.01 1032.93 1032.73 1032.61
1038.29 1038.49 1038.61 1038.73 1038.81 1038.85 1038.89 1038.89 1038.93 1038.89 1038.81 1038.77 1038.61 1038.49 1038.29 1038.13 1037.97 1037.73 1037.41 1036.85 1036.77 1036.77 1036.53 1036.37 1036.09 1035.49 1035.21 1035.13 1034.81 1034.25 1033.81 1033.69 1033.65 1033.61 1033.29 1033.13 1033.13 1032.93 1032.61 1032.53 1032.49 1032.33
Thickness
5319 5316 5313 5311 5307 5303 5301 5297 5295 5292 5289 5287 5284 5282 5279 5277 5274 5271 5269 5267 5266 5263 5262 5259 5257 5254 5251 5249 5246 5243 5240 5238 5236 5234 5232 5229 5226 5223 5220 5218 5215 5212
5311 5308 5305 5303 5300 5296 5292 5289 5287 5284 5281 5279 5276 5274 5272 5269 5267 5265 5263 5261 5259 5257 5255 5253 5250 5247 5245 5242 5239 5236 5233 5231 5228 5226 5223 5220 5218 5214 5211 5208 5205 5202
5303 5300 5297 5295 5292 5287 5285 5282 5279 5277 5274 5271 5269 5266 5264 5262 5260 5258 5256 5254 5252 5250 5248 5246 5243 5241 5238 5235 5232 5229 5225 5222 5220 5217 5213 5211 5208 5205 5201 5198 5194 5191
5295 5292 5289 5286 5283 5280 5277 5275 5272 5269 5267 5264 5261 5259 5257 5255 5253 5251 5249 5247 5245 5243 5241 5239 5236 5233 5231 5228 5224 5221 5218 5214 5211 5208 5204 5200 5197 5194 5190 5187 5183 5179
5288 5285 5281 5278 5276 5273 5270 5267 5264 5262 5260 5257 5255 5252 5250 5248 5246 5244 5242 5241 5238 5236 5234 5231 5228 5226 5223 5220 5217 5213 5210 5206 5203 5199 5195 5190 5186 5182 5179 5176 5172 5167
5281 5278 5274 5271 5269 5265 5262 5259 5257 5255 5252 5250 5248 5246 5243 5241 5239 5237 5235 5234 5232 5229 5227 5223 5221 5218 5215 5212 5208 5205 5202 5198 5194 5190 5186 5181 5175 5171 5168 5165 5161 5156
5274 5270 5267 5264 5261 5258 5255 5253 5251 5248 5246 5244 5241 5239 5237 5235 5232 5231 5229 5226 5224 5221 5219 5215 5213 5210 5207 5205 5201 5198 5194 5189 5185 5180 5175 5171 5165 5161 5157 5154 5150 5145
5267 5264 5260 5257 5254 5251 5249 5247 5245 5243 5240 5238 5235 5233 5230 5228 5226 5224 5222 5220 5217 5214 5211 5207 5206 5203 5200 5198 5195 5190 5186 5181 5177 5172 5167 5161 5155 5151 5147 5143 5139 5135
5260 5257 5254 5251 5249 5246 5244 5241 5239 5237 5234 5232 5229 5226 5225 5222 5220 5218 5215 5213 5210 5206 5204 5200 5198 5196 5193 5191 5188 5184 5179 5173 5168 5163 5158 5153 5147 5142 5138 5133 5130 5126
5253 5251 5248 5246 5243 5240 5238 5236 5233 5231 5228 5226 5223 5220 5219 5215 5213 5211 5208 5206 5203 5200 5197 5194 5191 5189 5186 5184 5181 5177 5172 5166 5161 5156 5150 5145 5140 5134 5130 5125 5122 5120
5247 5245 5242 5240 5238 5235 5233 5230 5228 5225 5222 5220 5217 5214 5212 5209 5206 5204 5201 5198 5196 5193 5191 5188 5184 5182 5179 5177 5174 5170 5165 5160 5154 5148 5143 5137 5132 5127 5123 5119 5117 5116
5241 5239 5236 5234 5233 5230 5228 5225 5222 5219 5216 5213 5211 5208 5205 5203 5200 5197 5195 5192 5189 5186 5184 5181 5178 5174 5172 5170 5166 5162 5157 5153 5147 5142 5136 5130 5125 5121 5117 5115 5114 5113
5236 5233 5231 5229 5228 5225 5222 5219 5216 5213 5210 5207 5204 5202 5199 5197 5195 5192 5189 5186 5183 5179 5177 5174 5171 5167 5165 5162 5159 5155 5150 5146 5140 5135 5130 5124 5120 5117 5114 5113 5112 5110
5230 5228 5226 5224 5222 5219 5216 5213 5210 5207 5204 5201 5198 5196 5194 5191 5189 5186 5183 5180 5177 5174 5170 5168 5163 5160 5158 5156 5152 5148 5143 5139 5134 5129 5124 5120 5116 5115 5113 5111 5112 5110
5225 5223 5222 5219 5216 5213 5210 5207 5204 5201 5198 5195 5193 5191 5188 5186 5183 5180 5177 5174 5171 5168 5164 5160 5157 5153 5151 5148 5144 5141 5136 5132 5129 5124 5120 5118 5116 5115 5114 5112 5112 5111
5219 5218 5216 5213 5210 5208 5204 5201 5198 5195 5193 5190 5187 5185 5183 5180 5177 5174 5171 5168 5165 5161 5157 5153 5150 5146 5143 5141 5137 5135 5132 5128 5125 5121 5118 5118 5118 5117 5116 5114 5113 5113
5214 5212 5209 5207 5204 5202 5198 5196 5193 5190 5188 5184 5182 5180 5177 5174 5171 5167 5164 5161 5158 5154 5150 5147 5143 5139 5137 5134 5131 5130 5128 5126 5125 5123 5120 5119 5119 5119 5118 5117 5116 5115
5209 5206 5204 5201 5199 5196 5193 5190 5187 5185 5182 5179 5176 5174 5171 5168 5165 5161 5158 5155 5151 5147 5144 5141 5137 5133 5130 5129 5127 5125 5125 5125 5124 5123 5123 5121 5120 5120 5119 5119 5118 5117
5204 5201 5199 5196 5194 5191 5188 5185 5183 5179 5177 5174 5172 5169 5166 5163 5159 5155 5152 5148 5145 5141 5138 5134 5130 5127 5125 5122 5123 5122 5121 5123 5123 5122 5121 5121 5119 5119 5118 5117 5117 5115
5200 5197 5195 5192 5189 5186 5183 5181 5178 5175 5172 5169 5167 5163 5161 5157 5153 5150 5146 5142 5139 5135 5131 5128 5124 5121 5120 5118 5119 5120 5120 5121 5121 5121 5120 5119 5117 5116 5115 5114 5112 5110
5196 5193 5189 5187 5184 5181 5179 5176 5173 5170 5167 5164 5162 5159 5155 5152 5148 5144 5141 5136 5132 5128 5124 5122 5119 5116 5115 5116 5117 5118 5119 5119 5119 5118 5118 5116 5114 5112 5111 5110 5108 5107
5191 5189 5185 5182 5180 5177 5174 5171 5167 5164 5161 5159 5157 5153 5149 5147 5143 5139 5135 5131 5126 5122 5119 5117 5115 5112 5112 5113 5114 5116 5117 5117 5117 5116 5115 5113 5112 5111 5109 5107 5106 5104
5187 5184 5181 5178 5175 5172 5169 5166 5162 5159 5156 5153 5151 5147 5144 5141 5137 5132 5128 5124 5120 5116 5114 5113 5112 5110 5110 5111 5112 5114 5115 5114 5114 5113 5112 5111 5111 5110 5108 5107 5105 5103
5183 5180 5177 5173 5170 5167 5163 5161 5156 5153 5151 5147 5144 5141 5138 5134 5130 5126 5122 5117 5115 5112 5109 5110 5110 5109 5108 5109 5110 5111 5112 5112 5112 5111 5111 5111 5111 5110 5107 5105 5104 5102
5178 5175 5172 5168 5165 5161 5158 5154 5151 5147 5145 5140 5137 5135 5132 5127 5123 5120 5117 5112 5110 5108 5106 5106 5108 5108 5107 5107 5108 5110 5110 5110 5110 5110 5111 5110 5109 5108 5107 5104 5102 5100
5173 5169 5167 5163 5159 5156 5152 5148 5145 5141 5137 5134 5130 5127 5124 5121 5117 5113 5112 5109 5105 5104 5104 5104 5105 5107 5107 5107 5107 5108 5109 5108 5108 5108 5109 5109 5107 5106 5105 5103 5099 5097